Regional Weather Roundup
Issued by NWS

Home | Current Version | Previous Version | Text Only | Print | Product List | Glossary Off
Versions: 1 2 3 4 5 6 7 8 9 10 11 12 13 14 15 16 17 18 19 20 21 22 23 24 25 26 27 28 29 30 31 32 33 34 35 36 37 38 39 40 41 42 43 44 45 46 47 48 49 50

000
ASUS43 KFSD 231010
RWRSD

WEATHER ROUNDUP FOR SOUTH DAKOTA
NATIONAL WEATHER SERVICE SIOUX FALLS SD
500 AM CDT SAT AUG 23 2014

NOTE: "FAIR" INDICATES FEW OR NO CLOUDS BELOW 12,000 FEET WITH NO
SIGNIFICANT WEATHER AND/OR OBSTRUCTIONS TO VISIBILITY.


SDZ001>005-009-010-012>017-231100-
NORTHWEST AND NORTH CENTRAL SOUTH DAKOTA

CITY           SKY/WX    TMP DP  RH WIND       PRES   REMARKS
BUFFALO          N/A     64  62  93 E14       29.89F
FAITH            N/A     64  62  93 NE17G24   29.93F
MOBRIDGE       RAIN      64  63  96 E12G22    29.95R
$$

SDZ012>016-024>037-041>051-057-063-072>074-231100-
SOUTHWEST AND SOUTH CENTRAL SOUTH DAKOTA

CITY           SKY/WX    TMP DP  RH WIND       PRES   REMARKS
RAPID CTY ARPT LGT RAIN  65  64  97 SE9       29.94S FOG
PIERRE         LGT RAIN  69  69 100 E15       29.89S
ELLSWORTH AFB  DRIZZLE   65  65 100 S12       29.93F
PHILIP         LGT RAIN  68  67  96 S5        29.88F
PINE RIDGE     LGT RAIN  62  61  96 E8        29.93F
WINNER         LGT RAIN  69  66  90 NE12G26   29.86F
$$

SDZ004>011-016>023-039-040-231100-
NORTHEAST SOUTH DAKOTA

CITY           SKY/WX    TMP DP  RH WIND       PRES   REMARKS
ABERDEEN       LGT RAIN  64  64 100 NE12      29.99R
WATERTOWN      CLOUDY    66  66 100 E8        29.99F FOG
SISSETON         N/A     66  66 100 NE8       29.99S
$$

SDZ017-020-022-023-036>040-048>070-231100-
SOUTHEAST SOUTH DAKOTA

CITY           SKY/WX    TMP DP  RH WIND       PRES   REMARKS
SIOUX FALLS    TSTM      71  69  93 N13       29.97F FOG
HURON          LGT RAIN  71  68  90 E10       29.94R
CHAMBERLAIN    LGT RAIN  69  68  98 E6        29.88F
MITCHELL       LGT RAIN  71  69  93 NE13      29.91F
YANKTON        CLOUDY    70  70 100 E8        29.84F
$$

ABBREVIATIONS USED IN REMARKS
   TC - TEMPERATURE IN CELSIUS
  WCI - WIND CHILL INDEX
   HX - HEAT INDEX
  VSB - VISIBILITY




USA.gov is the U.S. government's official web portal to all federal, state and local government web resources and services.